Probability
0 0 0 0 0 0 0 0 0 0 0 0 0 0 0 0 0 0 0 0 0 0 0 0 0 0 0 0 0 0 0 0 0 0 0 0 0 0 0 0 0 0 0
0 0 0 0 0 0 0 0 0 0 0 0 0 0 0 0 0 0 0 0 0 0 0 0 0 0 0 0 0 0 0 0 0 0 0 0 0 0 0 0 0 0 0
0 0 0 0 0 0 0 0 0 0 0 0 0 0 0 0 0 0 0 0 0 0 0 0 0 0 0 0 0 0 0 0 0 0 0 0 0 0 0 0 0 0 0
0 0 0 0 0 0 0 0 0 0 0 0 0 0 0 0 0 0 0 0 0 0 0 0 0 0 0 0 0 0 0 0 0 0 0 0 0 0 0 0 0 0 0
0 0 0 0 0 0 0 0 0 0 0 0 0 0 0 0 0 0 0 0 0 0 0 0 0 0 0 0 0 0 0 0 0 0 0 0 0 0 0 0 0 0 0
0 0 0 0 0 0 0 0 0 0 0 0 0 0 0 0 0 0 0 0 0 0 0 0 0 0 0 0 0 0 0 0 0 0 0 0 0 0 0 0 0 0 0
0 0 0 0 0 0 0 0 0 0 0 0 0 0 0 0 0 0 0 0 0 0 0 0 0 0 0 0 0 0 0 0 0 0 0 0 0 0 0 0 0 0 0
0 0 0 0 0 0 0 0 0 0 0 0 0 0 0 0 0 0 0 0 0 0 0 0 0 0 0 0 0 0 0 0 0 0 0 0 0 0 0 0 0 0 0
0 0 0 0 0 0 0 0 0 0 0 0 0 0 0 0 0 0 0 0 0 0 0 0 0 0 0 0 0 0 0 0 0 0 0 0 0 0 0 0 0 0 0
0 0 0 0 0 0 0 0 0 0 0 0 0 0 0 0 0 0 0 0 0 0 0 0 0 0 0 0 0 0 0 0 0 0 0 0 0 0 0 0 0 0 0
0 0 0 0 0 0 0 0 0 0 0 0 0 0 0 0 0 0 0 0 0 0 0 0 0 0 0 0 0 0 0 0 0 0 0 0 0 0 0 0 0 0 0
0 0 0 0 0 0 0 0 0 0 0 0 0 0 0 0 0 0 0 0 0 0 0 0 0 0 0 0 0 0 0 0 0 0 0 0 0 0 0 0 0 0 0
0 0 0 0 0 0 0 0 0 0 0 0 0 0 0 0 0 0 0 0 0 0 0 0 0 0 0 0 0 0 0 0 0 0 0 0 0 0 0 0 0 0 0
0 0 0 0 0 0 0 0 0 0 0 0 0 0 0 0 0 0 0 0 0 0 0 0 0 0 0 0 0 0 0 0 0 0 0 0 0 0 0 0 0 0 0
0 0 0 0 0 0 0 0 0 0 0 0 0 0 0 0 0 0 0 0 0 0 0 0 0 0 0 0 0 0 0 0 0 0 0 0 0 0 0 0 0 0 0
0 0 0 0 0 0 0 0 0 0 0 0 0 0 0 0 0 0 0 0 0 0 0 0 0 0 0 0 0 0 0 0 0 0 0 0 0 0 0 0 0 0 0
0 0 0 0 0 0 0 0 0 0 0 0 0 0 0 0 0 0 0 0 0 0 0 0 0 0 0 0 0 0 0 0 0 0 0 0 0 0 0 0 0 0 0
0 0 0 0 0 0 0 0 0 0 0 0 0 0 0 0 0 0 0 0 0 0 0 0 0 0 0 0 0 0 0 0 0 0 0 0 0 0 0 0 0 0 0
0 0 0 0 0 0 0 0 0 0 0 0 0 0 0 0 0 0 0 0 0 0 0 0 0 0 0 0 0 0 0 0 0 0 0 0 0 0 0 0 0 0 0
0 0 0 0 0 0 0 0 0 0 0 0 0 0 0 0 0 0 0 0 0 0 0 0 0 0 0 0 0 0 0 0 0 0 0 0 0 0 0 0 0 0 0
0 0 0 0 0 0 0 0 0 0 0 0 0 0 0 0 0 0 0 0 0 0 0 0 0 0 0 0 0 0 0 0 0 0 0 0 0 0 0 0 0 0 0
0 0 0 0 0 0 0 0 0 0 0 0 0 0 0 0 0 0 0 0 0 0 0 0 0 0 0 0 0 0 0 0 0 0 0 0 0 0 0 0 0 0 0
0 0 0 0 0 0 0 0 0 0 0 0 0 0 0 0 0 0 0 0 0 0 0 0 0 0 0 0 0 0 0 0 0 0 0 0 0 0 0 0 0 0 0
0 0 0 0 0 0 0 0 0 0 0 0 0 0 0 0 0 0 0 0 0 0 0 0 0 0 0 0 0 0 0 0 0 0 0 0 0 0 0 0 0 0 0
0 0 0 0 0 0 0 0 0 0 0 0 0 0 0 0 0 0 0 0 0 0 0 0 0 0 0 0 0 0 0 0 0 0 0 0 0 0 0 0 0 0 0
0 0 0 0 0 0 0 0 0 0 0 0 0 0 0 0 0 0 0 0 0 0 0 0 0 0 0 0 0 0 0 0 0 0 0 0 0 0 0 0 0 0 0
Wind_Speed
5 4 5 4 3 4 3 3 2 2 2 2 2 3 3 3 3 3 3 3 3 3 3 4 4 3 3 2 2 2 1 1 0 3 2 3 4 4 4 3 3 3 3
5 5 5 4 4 4 3 2 3 3 2 2 2 3 3 3 3 3 3 3 3 3 3 3 3 3 4 3 2 3 2 1 0 2 3 3 3 4 4 4 4 3 3
6 6 5 4 4 4 3 3 3 3 3 3 3 3 3 3 3 3 3 3 3 2 2 3 3 3 3 3 3 3 2 2 1 1 2 2 2 3 4 4 4 3 3
6 6 6 5 4 4 3 3 3 3 3 3 3 3 3 3 3 3 3 4 3 3 3 2 3 3 2 2 3 3 2 2 2 1 2 2 2 3 2 3 3 3 3
7 6 6 5 4 4 4 3 3 3 4 3 3 3 2 2 3 3 3 4 3 4 4 3 3 5 5 4 3 2 2 2 2 2 2 2 3 3 3 2 2 2 2
8 7 6 6 5 4 4 4 4 4 3 3 3 3 3 2 5 6 4 3 3 3 3 3 3 5 7 8 8 6 5 3 2 1 1 2 2 2 2 2 1 2 2
8 7 6 6 6 5 5 4 4 3 3 3 2 3 2 2 4 6 6 4 3 3 2 2 3 5 5 4 7 8 7 8 5 1 1 2 3 2 2 2 2 1 2
8 7 7 7 6 5 5 4 3 3 3 2 2 2 1 1 3 5 6 4 3 2 2 1 2 3 4 4 4 5 5 5 5 3 1 3 3 3 2 2 2 1 2
8 8 7 7 7 6 5 4 3 3 2 2 2 2 1 0 1 3 4 2 2 3 3 2 2 2 4 6 4 4 5 5 5 6 6 5 6 6 4 1 2 1 2
10 9 8 7 7 7 6 4 3 3 3 3 2 1 1 1 1 1 3 2 1 1 2 3 3 3 4 5 3 2 3 5 5 6 6 7 5 5 6 2 1 1 1
8 7 7 7 7 6 5 3 3 3 3 2 1 1 1 2 2 2 2 1 1 0 1 2 2 5 5 5 4 1 3 4 3 4 4 4 4 3 4 3 1 1 1
8 8 7 6 6 5 5 4 3 4 3 2 1 1 1 2 1 2 2 2 2 1 1 2 3 5 6 6 4 5 7 6 2 2 3 3 3 3 3 3 3 3 2
8 8 7 6 5 5 6 5 3 3 3 2 2 1 2 1 2 2 2 2 2 1 2 3 4 5 6 5 6 7 6 2 2 2 2 3 3 3 3 3 3 3 3
9 8 6 6 5 4 4 4 4 4 3 3 2 2 2 1 2 2 1 1 2 1 1 3 4 5 4 4 5 4 2 1 1 2 3 3 3 2 2 2 2 3 3
8 7 6 5 6 5 4 3 5 5 6 5 4 4 3 3 5 5 3 2 2 2 1 1 1 2 3 3 3 3 2 2 2 2 2 2 2 2 3 2 2 2 2
8 7 5 5 4 4 4 1 1 3 5 6 6 5 4 6 5 5 5 5 4 3 1 1 2 2 3 3 3 3 3 2 2 2 2 2 2 2 3 2 2 2 3
8 7 5 5 5 5 4 4 2 1 2 3 4 5 4 4 4 4 4 3 3 2 1 2 2 3 3 3 3 3 3 3 2 2 2 2 2 2 2 3 2 2 3
7 7 7 5 5 5 5 4 4 4 2 2 3 4 4 4 4 3 3 1 1 1 2 3 3 3 3 3 3 3 3 3 2 3 3 3 3 3 3 3 3 3 4
6 4 4 4 4 4 4 4 3 4 3 2 1 2 4 4 3 3 2 2 2 3 3 3 4 4 4 4 4 3 3 3 3 3 3 3 3 3 3 4 4 5 4
5 7 6 4 4 4 4 4 4 4 3 3 3 3 2 1 1 2 2 3 3 3 4 4 4 4 4 3 3 3 3 3 4 3 3 3 3 3 4 5 4 4 4
5 6 7 5 4 5 4 5 4 4 4 4 4 4 5 3 4 4 4 4 4 4 4 4 4 3 3 3 3 4 4 4 4 4 4 4 3 4 4 4 5 5 5
5 4 4 5 4 4 4 4 4 4 5 4 3 3 6 3 3 4 4 4 4 4 4 4 4 4 4 4 4 4 4 4 4 4 4 4 4 4 4 4 4 5 5
5 5 4 4 4 5 4 4 4 4 4 4 4 3 4 4 4 4 5 4 4 4 3 3 4 4 4 4 4 4 5 5 5 5 5 5 4 4 5 5 6 6 6
5 5 5 4 3 4 4 4 4 4 4 4 4 4 4 5 5 5 5 4 4 4 4 4 4 6 7 5 4 4 5 6 5 5 6 6 6 5 5 6 6 7 7
4 4 4 4 4 4 4 4 4 4 4 4 4 4 4 5 5 5 4 4 5 5 5 5 4 5 7 8 7 6 7 9 8 6 5 5 6 7 7 7 7 7 7
3 4 4 4 4 4 4 4 4 4 4 4 4 4 4 4 4 4 4 4 4 5 5 5 6 7 7 6 7 9 10 10 10 10 6 5 6 7 7 6 8 8 8
Wind_Direction
154 142 130 135 134 121 117 126 127 113 107 97 87 79 67 51 43 54 46 41 42 26 26 37 21 16 19 8 14 26 32 101 235 302 310 327 353 359 353 357 5 8 356
155 141 138 137 127 116 119 126 120 111 106 107 96 84 71 57 50 58 52 46 51 39 25 33 15 21 22 10 20 20 8 14 176 307 323 337 342 341 349 1 4 7 4
148 139 136 134 129 128 131 127 118 108 94 89 93 91 79 65 57 55 62 52 49 40 32 38 14 25 16 6 15 13 358 3 14 329 321 326 326 343 352 355 2 0 4
146 142 141 144 142 138 129 121 115 107 97 87 88 93 88 75 65 60 60 53 43 32 25 32 25 31 17 7 10 360 3 12 12 5 335 331 327 331 0 358 355 352 353
148 149 153 149 138 127 121 116 107 101 102 104 95 82 80 81 74 72 61 58 49 35 23 21 31 36 37 34 29 11 17 16 12 12 348 345 340 347 344 338 353 338 344
152 155 151 143 138 135 131 120 107 99 96 95 94 96 80 68 74 72 74 64 53 44 23 7 13 25 26 29 32 33 34 29 12 9 342 336 316 314 320 341 349 358 334
155 155 154 149 147 149 139 125 124 119 105 99 98 101 96 79 78 75 72 75 61 49 33 16 13 22 25 22 20 23 18 19 18 28 346 308 298 301 312 324 326 316 273
159 160 159 152 152 149 139 140 140 130 127 126 126 130 118 78 78 76 76 69 64 48 29 23 26 5 9 28 25 19 10 2 349 355 312 288 298 302 291 274 266 299 301
167 169 166 159 155 154 155 157 152 139 141 150 151 147 148 240 82 86 79 70 55 22 6 23 33 9 8 35 38 16 357 343 345 352 346 337 334 337 343 358 348 1 326
178 174 166 161 161 165 168 161 152 148 158 155 157 184 190 228 237 123 96 93 71 14 357 0 9 9 8 28 35 15 348 328 334 338 341 342 340 336 342 337 285 308 309
168 158 158 163 166 164 158 153 148 142 137 143 163 246 249 247 241 187 134 124 153 114 338 330 324 344 354 360 359 336 318 323 322 326 328 332 339 342 339 334 311 256 272
150 152 159 163 164 156 149 147 143 141 140 151 160 289 297 285 256 235 202 171 159 155 247 274 295 324 337 343 343 333 336 345 340 336 338 332 330 327 323 324 317 301 271
148 155 159 157 156 153 155 154 147 149 153 172 180 220 271 288 289 280 255 225 199 199 249 274 299 318 329 333 334 336 343 350 339 331 319 304 295 296 307 320 323 317 312
155 160 159 156 156 154 157 162 162 169 172 183 194 211 235 257 263 263 262 251 248 268 287 303 316 324 323 315 326 333 326 298 294 280 286 290 300 311 314 313 315 326 328
157 159 159 161 163 164 169 180 181 193 189 188 200 197 199 228 240 228 212 221 220 230 253 337 337 327 323 318 313 306 303 311 304 284 280 294 303 307 306 310 302 321 319
157 163 164 163 164 161 158 159 223 202 212 212 209 203 217 229 236 231 228 233 234 221 165 242 269 276 280 287 294 299 297 288 277 274 274 274 284 292 299 303 300 297 296
164 168 166 167 167 168 170 174 190 275 277 234 223 216 218 222 222 225 226 232 239 197 187 241 253 259 264 268 268 269 272 271 264 263 265 267 275 284 289 290 290 289 289
161 170 169 174 174 177 182 186 185 189 216 260 256 237 228 223 226 228 218 156 309 267 229 243 252 255 256 260 262 264 267 271 266 262 263 264 262 271 281 279 277 277 284
162 166 170 172 174 177 179 182 186 193 201 212 234 260 242 236 241 242 201 192 229 247 248 249 251 254 256 255 257 258 258 255 258 259 260 262 260 261 270 271 272 276 279
172 175 167 168 172 174 177 182 190 197 203 207 217 223 208 184 226 241 228 229 234 245 250 253 254 252 251 252 255 256 258 254 255 253 257 260 260 257 263 270 269 273 274
171 178 176 169 177 183 186 193 197 198 206 214 224 220 198 200 216 225 229 234 235 240 244 246 249 252 252 255 256 257 255 253 249 249 253 256 260 264 266 267 271 273 276
169 174 179 183 186 190 193 195 194 198 206 214 229 228 213 211 219 225 231 237 238 239 239 238 242 244 242 243 248 253 256 256 255 252 254 256 257 261 263 265 269 275 276
167 173 180 187 190 193 193 195 197 202 207 211 213 215 215 222 230 233 237 242 245 248 248 242 247 255 255 252 249 242 247 250 247 244 248 254 256 258 259 262 266 272 275
169 177 183 187 189 193 198 203 205 209 212 214 215 216 220 225 230 233 235 237 241 247 247 245 247 254 261 263 258 253 252 254 251 246 245 251 257 261 262 263 263 264 269
168 176 182 186 190 197 202 206 210 213 217 220 223 226 228 229 233 236 235 236 238 244 251 252 252 257 261 263 265 263 262 260 257 255 251 250 255 260 262 263 264 266 266
174 182 186 187 191 196 199 207 217 219 220 224 226 228 231 235 239 241 239 238 245 250 252 253 255 260 264 265 266 266 267 267 263 260 257 253 254 259 261 264 266 267 267